Date String (YYYY-MM-DD hh:mm:ss) UTC,Instrument flags,Ambient pressure (hPa),Sample flow (lpm),Bypass flow (lpm),Sample temperature (°C),Ambient temperature (°C),ASC tube jacket temperature (°C),LED temperature (°C),Box temperature (°C),Sample RH (%),Span deviation,Mass concentration (μg/m³),Mass concentration (μg/m³),Mass concentration (μg/m³)
DateTimeUTC,F1_M11,P_M11,Q1_M11,Q2_M11,T1_M11,T2_M11,T3_M11,T4_M11,T5_M11,U1_M11,ZSPAN_M11,X2_M11,X0_M11,X1_M11
2023-05-23 15:00:00,,0831.3,4.99,0.00,29.3,27.7,00.0,37.6,30.9,22.6,0003.5,0021.95,0032.21,0020.80
2023-05-23 15:01:00,,0831.3,4.99,0.00,29.3,27.8,00.0,37.6,30.9,22.6,0003.5,0021.82,0031.94,0020.71
2023-05-23 15:02:00,,0831.3,5.00,0.00,29.3,27.8,00.0,37.6,30.9,23.2,0003.4,0021.73,0031.83,0020.61
2023-05-23 15:03:00,,0831.3,5.01,0.00,29.3,27.8,00.0,37.6,30.9,22.9,0003.3,0021.66,0032.64,0020.51
2023-05-23 15:04:00,,0831.2,5.00,0.00,29.3,27.8,00.0,37.6,30.9,22.8,0003.3,0021.59,0032.77,0020.44
2023-05-23 15:05:00,,0831.3,5.00,0.00,29.3,27.8,00.0,37.6,31.0,23.0,0003.2,0021.58,0033.48,0020.40
2023-05-23 15:06:00,,0831.3,5.00,0.00,29.3,27.8,00.0,37.6,31.0,22.6,0003.2,0021.56,0033.60,0020.34
2023-05-23 15:07:00,,0831.3,4.99,0.00,29.4,27.8,00.0,37.6,31.0,22.0,0003.2,0021.48,0033.37,0020.26
2023-05-23 15:08:00,,0831.3,5.00,0.00,29.4,27.8,00.0,37.7,31.0,21.9,0003.2,0021.31,0032.96,0020.15
2023-05-23 15:09:00,,0831.3,5.00,0.00,29.4,27.8,00.0,37.7,31.0,21.7,0003.3,0021.24,0033.10,0020.07
2023-05-23 15:10:00,,0831.3,5.00,0.00,29.4,27.8,00.0,37.7,31.0,21.9,0003.3,0021.20,0033.11,0019.99
2023-05-23 15:11:00,,0831.3,4.99,0.00,29.4,27.8,00.0,37.7,31.0,21.8,0003.4,0021.19,0033.64,0019.94
2023-05-23 15:12:00,,0831.2,5.00,0.00,29.4,27.9,00.0,37.7,31.0,22.0,0003.1,0021.18,0033.84,0019.90
2023-05-23 15:13:00,,0831.3,5.00,0.00,29.4,27.9,00.0,37.7,31.0,22.1,0003.2,0021.24,0033.61,0019.91
2023-05-23 15:14:00,,0831.3,5.00,0.00,29.4,27.9,00.0,37.7,31.0,21.7,0003.3,0021.22,0032.70,0019.90
2023-05-23 15:15:00,,0831.3,4.99,0.00,29.4,27.9,00.0,37.7,31.0,21.4,0003.3,0021.18,0032.62,0019.83
2023-05-23 15:16:00,,0831.3,5.00,0.00,29.4,27.9,00.0,37.7,31.0,21.6,0003.3,0021.12,0032.36,0019.76
2023-05-23 15:17:00,,0831.3,5.00,0.00,29.4,27.9,00.0,37.7,31.0,22.3,0003.3,0020.99,0032.64,0019.66
2023-05-23 15:18:00,,0831.3,5.00,0.00,29.5,27.9,00.0,37.7,31.1,23.0,0003.2,0020.90,0032.97,0019.64
2023-05-23 15:19:00,,0831.3,5.00,0.00,29.5,27.9,00.0,37.8,31.1,23.3,0003.3,0020.88,0033.77,0019.62
2023-05-23 15:20:00,,0831.3,5.00,0.00,29.5,27.9,00.0,37.8,31.1,23.0,0003.2,0020.92,0034.55,0019.62
2023-05-23 15:21:00,,0831.3,5.00,0.00,29.5,27.9,00.0,37.8,31.1,23.0,0003.2,0020.83,0033.88,0019.56
2023-05-23 15:22:00,,0831.3,5.00,0.00,29.5,27.9,00.0,37.8,31.1,23.0,0003.2,0020.72,0034.35,0019.50
2023-05-23 15:23:00,,0831.3,5.00,0.00,29.5,27.9,00.0,37.8,31.1,22.8,0003.2,0020.67,0033.93,0019.48
2023-05-23 15:24:00,,0831.3,5.00,0.00,29.5,27.9,00.0,37.8,31.1,22.1,0003.3,0020.60,0033.83,0019.42
2023-05-23 15:25:00,,0831.3,5.00,0.00,29.5,27.9,00.0,37.8,31.1,21.8,0003.2,0020.47,0033.49,0019.34
2023-05-23 15:26:00,,0831.3,5.00,0.00,29.5,27.9,00.0,37.8,31.1,21.4,0003.2,0020.39,0033.06,0019.30
2023-05-23 15:27:00,,0831.3,5.00,0.00,29.5,27.9,00.0,37.8,31.1,20.9,0003.2,0020.33,0032.71,0019.27
2023-05-23 15:28:00,,0831.3,5.00,0.00,29.5,27.9,00.0,37.8,31.1,21.6,0003.3,0020.33,0032.00,0019.26
2023-05-23 15:29:00,,0831.3,5.00,0.00,29.5,27.9,00.0,37.8,31.1,22.3,0003.5,0020.42,0031.88,0019.31
2023-05-23 15:30:00,,0831.3,5.00,0.00,29.5,27.9,00.0,37.8,31.1,22.4,0003.5,0020.43,0030.87,0019.31
2023-05-23 15:31:00,,0831.3,5.00,0.00,29.5,27.9,00.0,37.8,31.1,22.5,0003.5,0020.40,0030.43,0019.32
2023-05-23 15:32:00,,0831.3,5.00,0.00,29.5,27.9,00.0,37.8,31.1,23.1,0003.5,0020.41,0030.90,0019.34
2023-05-23 15:33:00,,0831.3,5.00,0.00,29.5,28.0,00.0,37.8,31.1,22.6,0003.4,0020.44,0030.66,0019.40
2023-05-23 15:34:00,,0831.3,5.01,0.00,29.5,28.0,00.0,37.8,31.1,22.8,0003.5,0020.59,0031.46,0019.48
2023-05-23 15:35:00,,0831.3,5.00,0.00,29.5,28.0,00.0,37.8,31.1,22.5,0003.5,0020.69,0032.22,0019.56
2023-05-23 15:36:00,,0831.3,4.99,0.00,29.5,28.0,00.0,37.9,31.1,22.4,0003.6,0020.78,0032.54,0019.62
2023-05-23 15:37:00,,0831.3,5.00,0.00,29.6,28.0,00.0,37.9,31.1,22.7,0003.6,0020.85,0033.00,0019.68
2023-05-23 15:38:00,,0831.3,5.00,0.00,29.6,28.1,00.0,37.9,31.2,23.0,0003.7,0020.90,0033.84,0019.75
2023-05-23 15:39:00,,0831.3,5.01,0.00,29.6,28.1,00.0,37.9,31.2,23.2,0003.7,0021.01,0034.20,0019.85
2023-05-23 15:40:00,,0831.3,5.00,0.00,29.6,28.1,00.0,37.9,31.2,23.1,0003.6,0021.04,0033.95,0019.92
2023-05-23 15:41:00,,0831.3,5.00,0.00,29.6,28.1,00.0,37.9,31.2,22.9,0003.5,0021.05,0033.56,0019.96
2023-05-23 15:42:00,,0831.2,5.00,0.00,29.6,28.1,00.0,37.9,31.2,22.4,0003.5,0021.10,0033.30,0020.00
2023-05-23 15:43:00,,0831.2,5.00,0.00,29.6,28.1,00.0,37.9,31.2,22.4,0003.5,0021.19,0032.75,0020.06
2023-05-23 15:44:00,,0831.2,5.00,0.00,29.6,28.2,00.0,37.9,31.2,22.7,0003.5,0021.25,0032.77,0020.09
2023-05-23 15:45:00,,0831.3,4.99,0.00,29.7,28.2,00.0,37.9,31.3,23.3,0003.5,0021.23,0032.04,0020.10
2023-05-23 15:46:00,,0831.2,4.99,0.00,29.7,28.2,00.0,37.9,31.3,23.4,0003.4,0021.25,0031.47,0020.11
2023-05-23 15:47:00,,0831.2,5.01,0.00,29.7,28.2,00.0,38.0,31.3,23.2,0003.4,0021.25,0031.70,0020.16
2023-05-23 15:48:00,,0831.2,5.01,0.00,29.7,28.2,00.0,38.0,31.3,24.0,0003.5,0021.35,0031.71,0020.23
2023-05-23 15:49:00,,0831.2,4.98,0.00,29.7,28.3,00.0,38.0,31.3,23.7,0003.4,0021.46,0031.14,0020.32
2023-05-23 15:50:00,,0831.2,5.00,0.00,29.7,28.3,00.0,38.0,31.3,23.3,0003.3,0021.50,0030.88,0020.37
2023-05-23 15:51:00,,0831.2,5.01,0.00,29.7,28.3,00.0,38.0,31.3,23.5,0003.5,0021.51,0030.69,0020.41
2023-05-23 15:52:00,,0831.2,5.01,0.00,29.7,28.3,00.0,38.0,31.3,23.1,0003.6,0021.65,0031.14,0020.48
2023-05-23 15:53:00,,0831.3,5.01,0.00,29.7,28.3,00.0,38.0,31.3,22.4,0003.6,0021.78,0031.58,0020.53
2023-05-23 15:54:00,,0831.2,4.99,0.00,29.7,28.3,00.0,38.0,31.3,22.7,0003.6,0021.85,0032.06,0020.57
2023-05-23 15:55:00,,0831.2,4.99,0.00,29.8,28.3,00.0,38.0,31.4,22.1,0003.7,0021.86,0032.26,0020.57
2023-05-23 15:56:00,,0831.2,5.00,0.00,29.8,28.3,00.0,38.0,31.4,22.0,0003.5,0021.86,0032.15,0020.57
2023-05-23 15:57:00,,0831.2,5.01,0.00,29.8,28.3,00.0,38.1,31.4,21.8,0003.5,0021.85,0032.22,0020.56
2023-05-23 15:58:00,,0831.3,5.00,0.00,29.8,28.3,00.0,38.1,31.4,22.6,0003.4,0021.92,0032.14,0020.60
2023-05-23 15:59:00,,0831.2,5.00,0.00,29.8,28.3,00.0,38.1,31.4,22.9,0003.4,0021.94,0032.08,0020.64
